Time,TemperatureF,DewpointF,PressureIn,WindDirection,WindDirectionDegrees,WindSpeedMPH,WindSpeedGustMPH,Humidity,HourlyPrecipIn,Conditions,Clouds,dailyrainin,SoftwareType,DateUTC
2013-02-22 00:01:00,17.0,14.0,29.96,WSW,240,1.0,3.0,86,0.00,,,0.00,,2013-02-22 07:01:00,
2013-02-22 00:11:00,17.0,14.0,29.96,WSW,240,1.0,3.0,86,0.00,,,0.00,,2013-02-22 07:11:00,
2013-02-22 00:21:00,18.0,14.0,29.95,SW,224,0.0,2.0,85,0.00,,,0.00,,2013-02-22 07:21:00,
2013-02-22 00:31:00,18.0,14.0,29.95,SSW,195,1.0,2.0,83,0.00,,,0.00,,2013-02-22 07:31:00,
2013-02-22 00:42:00,18.0,14.0,29.95,SSW,195,1.0,2.0,83,0.00,,,0.00,,2013-02-22 07:42:00,
2013-02-22 00:52:00,18.0,14.0,29.95,WSW,242,2.0,4.0,85,0.00,,,0.00,,2013-02-22 07:52:00,
2013-02-22 01:01:00,18.0,14.0,29.95,WSW,247,2.0,4.0,84,0.00,,,0.00,,2013-02-22 08:01:00,
2013-02-22 01:11:00,18.0,14.0,29.95,WSW,247,2.0,4.0,84,0.00,,,0.00,,2013-02-22 08:11:00,
2013-02-22 01:21:00,18.0,14.0,29.95,ESE,121,1.0,5.0,83,0.00,,,0.00,,2013-02-22 08:21:00,
2013-02-22 01:31:00,18.0,14.0,29.95,North,351,1.0,8.0,83,0.00,,,0.00,,2013-02-22 08:31:00,
2013-02-22 01:41:00,18.0,14.0,29.95,North,351,1.0,8.0,83,0.00,,,0.00,,2013-02-22 08:41:00,
2013-02-22 01:52:00,18.0,14.0,29.95,WSW,241,1.0,5.0,85,0.00,,,0.00,,2013-02-22 08:52:00,
2013-02-22 02:03:00,18.0,14.0,29.95,WSW,251,4.0,5.0,84,0.00,,,0.00,,2013-02-22 09:03:00,
2013-02-22 02:11:00,19.0,15.0,29.95,WNW,299,1.0,4.0,84,0.00,,,0.00,,2013-02-22 09:11:00,
2013-02-22 02:21:00,19.0,15.0,29.95,WNW,299,1.0,4.0,84,0.00,,,0.00,,2013-02-22 09:21:00,
2013-02-22 02:31:00,19.0,15.0,29.95,ESE,108,1.0,4.0,83,0.00,,,0.00,,2013-02-22 09:31:00,
2013-02-22 02:41:00,19.0,15.0,29.95,ESE,108,1.0,4.0,83,0.00,,,0.00,,2013-02-22 09:41:00,
2013-02-22 02:52:00,18.0,14.0,29.95,SW,222,1.0,3.0,84,0.00,,,0.00,,2013-02-22 09:52:00,
2013-02-22 03:01:00,19.0,15.0,29.95,South,184,2.0,4.0,85,0.00,,,0.00,,2013-02-22 10:01:00,
2013-02-22 03:11:00,19.0,15.0,29.95,South,184,2.0,4.0,85,0.00,,,0.00,,2013-02-22 10:11:00,
2013-02-22 03:21:00,18.0,14.0,29.95,NNW,331,0.0,3.0,85,0.00,,,0.00,,2013-02-22 10:21:00,
2013-02-22 03:31:00,18.0,15.0,29.95,WSW,243,0.0,3.0,86,0.00,,,0.00,,2013-02-22 10:31:00,
2013-02-22 03:42:00,18.0,15.0,29.95,WSW,243,0.0,3.0,86,0.00,,,0.00,,2013-02-22 10:42:00,
2013-02-22 03:52:00,18.0,15.0,29.95,South,184,1.0,4.0,86,0.00,,,0.00,,2013-02-22 10:52:00,
2013-02-22 04:01:00,18.0,14.0,29.95,SSE,150,1.0,3.0,85,0.00,,,0.00,,2013-02-22 11:01:00,
2013-02-22 04:11:00,18.0,14.0,29.95,SSE,150,1.0,3.0,85,0.00,,,0.00,,2013-02-22 11:11:00,
2013-02-22 04:21:00,18.0,15.0,29.95,WNW,299,0.0,4.0,86,0.00,,,0.00,,2013-02-22 11:21:00,
2013-02-22 04:31:00,18.0,14.0,29.95,WNW,299,0.0,2.0,85,0.00,,,0.00,,2013-02-22 11:31:00,
2013-02-22 04:42:00,18.0,14.0,29.95,WNW,299,0.0,2.0,85,0.00,,,0.00,,2013-02-22 11:42:00,
2013-02-22 04:52:00,17.0,14.0,29.96,SE,137,0.0,5.0,86,0.00,,,0.00,,2013-02-22 11:52:00,
2013-02-22 05:01:00,17.0,14.0,29.95,South,169,1.0,3.0,87,0.00,,,0.00,,2013-02-22 12:01:00,
2013-02-22 05:11:00,17.0,14.0,29.95,South,169,1.0,3.0,87,0.00,,,0.00,,2013-02-22 12:11:00,
2013-02-22 05:21:00,16.0,12.0,29.95,SE,134,3.0,4.0,84,0.00,,,0.00,,2013-02-22 12:21:00,
2013-02-22 05:32:00,16.0,12.0,29.96,SSE,162,0.0,3.0,84,0.00,,,0.00,,2013-02-22 12:32:00,
2013-02-22 05:42:00,16.0,12.0,29.96,SSE,162,0.0,3.0,84,0.00,,,0.00,,2013-02-22 12:42:00,
2013-02-22 05:52:00,16.0,13.0,29.96,SW,236,1.0,5.0,86,0.00,,,0.00,,2013-02-22 12:52:00,
2013-02-22 06:01:00,16.0,12.0,29.96,North,350,1.0,5.0,84,0.00,,,0.00,,2013-02-22 13:01:00,
2013-02-22 06:11:00,16.0,12.0,29.96,North,350,1.0,5.0,84,0.00,,,0.00,,2013-02-22 13:11:00,
2013-02-22 06:22:00,16.0,12.0,29.97,SW,225,1.0,3.0,84,0.00,,,0.00,,2013-02-22 13:22:00,
2013-02-22 06:31:00,16.0,12.0,29.96,SSE,157,1.0,3.0,83,0.00,,,0.00,,2013-02-22 13:31:00,
2013-02-22 06:41:00,16.0,12.0,29.96,SSE,157,1.0,3.0,83,0.00,,,0.00,,2013-02-22 13:41:00,
2013-02-22 06:52:00,16.0,12.0,29.97,SE,144,0.0,2.0,83,0.00,,,0.00,,2013-02-22 13:52:00,
2013-02-22 07:01:00,15.0,11.0,29.97,NW,311,3.0,5.0,83,0.00,,,0.00,,2013-02-22 14:01:00,
2013-02-22 07:11:00,15.0,11.0,29.97,WSW,249,1.0,5.0,83,0.00,,,0.00,,2013-02-22 14:11:00,
2013-02-22 07:21:00,15.0,11.0,29.97,WSW,249,1.0,5.0,83,0.00,,,0.00,,2013-02-22 14:21:00,
2013-02-22 07:31:00,15.0,10.0,29.98,SW,227,0.0,2.0,81,0.00,,,0.00,,2013-02-22 14:31:00,
2013-02-22 07:41:00,15.0,10.0,29.98,SW,227,0.0,2.0,81,0.00,,,0.00,,2013-02-22 14:41:00,
2013-02-22 07:52:00,15.0,10.0,29.98,SW,227,2.0,3.0,81,0.00,,,0.00,,2013-02-22 14:52:00,
2013-02-22 08:01:00,18.0,13.0,29.99,SW,236,2.0,3.0,80,0.00,,,0.00,,2013-02-22 15:01:00,
2013-02-22 08:11:00,18.0,13.0,29.99,SW,236,2.0,3.0,80,0.00,,,0.00,,2013-02-22 15:11:00,
2013-02-22 08:21:00,20.0,14.0,29.99,NNW,329,1.0,3.0,77,0.00,,,0.00,,2013-02-22 15:21:00,
2013-02-22 08:31:00,22.0,14.0,30.00,NNE,32,2.0,3.0,72,0.00,,,0.00,,2013-02-22 15:31:00,
2013-02-22 08:41:00,22.0,14.0,30.00,NNE,32,2.0,3.0,72,0.00,,,0.00,,2013-02-22 15:41:00,
2013-02-22 08:52:00,22.0,14.0,30.00,ENE,73,3.0,4.0,71,0.00,,,0.00,,2013-02-22 15:52:00,
2013-02-22 09:01:00,23.0,15.0,30.01,NE,49,0.0,2.0,72,0.00,,,0.00,,2013-02-22 16:01:00,
2013-02-22 09:11:00,23.0,15.0,30.01,NE,49,0.0,2.0,72,0.00,,,0.00,,2013-02-22 16:11:00,
2013-02-22 09:21:00,23.0,15.0,30.01,ENE,63,4.0,6.0,72,0.00,,,0.00,,2013-02-22 16:21:00,
2013-02-22 09:31:00,23.0,15.0,30.01,ENE,58,3.0,5.0,72,0.00,,,0.00,,2013-02-22 16:31:00,
2013-02-22 09:41:00,23.0,15.0,30.01,ENE,58,3.0,5.0,72,0.00,,,0.00,,2013-02-22 16:41:00,
2013-02-22 09:52:00,23.0,16.0,30.01,ENE,65,3.0,7.0,73,0.00,,,0.00,,2013-02-22 16:52:00,
2013-02-22 10:01:00,23.0,15.0,30.01,NE,34,2.0,6.0,70,0.00,,,0.00,,2013-02-22 17:01:00,
2013-02-22 10:11:00,23.0,15.0,30.01,NE,34,2.0,6.0,70,0.00,,,0.00,,2013-02-22 17:11:00,
2013-02-22 10:21:00,24.0,15.0,30.00,NNE,29,3.0,7.0,69,0.00,,,0.00,,2013-02-22 17:21:00,
2013-02-22 10:31:00,25.0,15.0,29.99,ENE,76,4.0,7.0,65,0.00,,,0.00,,2013-02-22 17:31:00,
2013-02-22 10:41:00,25.0,15.0,29.99,ENE,76,4.0,7.0,65,0.00,,,0.00,,2013-02-22 17:41:00,
2013-02-22 10:52:00,25.0,15.0,29.98,ENE,68,5.0,8.0,65,0.00,,,0.00,,2013-02-22 17:52:00,
2013-02-22 11:01:00,26.0,15.0,29.98,NE,53,6.0,8.0,62,0.00,,,0.00,,2013-02-22 18:01:00,
2013-02-22 11:11:00,27.0,16.0,29.97,NNE,15,4.0,9.0,62,0.00,,,0.00,,2013-02-22 18:11:00,
2013-02-22 11:22:00,27.0,16.0,29.97,NNE,15,4.0,9.0,62,0.00,,,0.00,,2013-02-22 18:22:00,
2013-02-22 11:31:00,28.0,13.0,29.97,NNE,26,6.0,10.0,53,0.00,,,0.00,,2013-02-22 18:31:00,
2013-02-22 11:42:00,28.0,13.0,29.97,NNE,26,6.0,10.0,53,0.00,,,0.00,,2013-02-22 18:42:00,
2013-02-22 11:52:00,29.0,13.0,29.96,North,5,6.0,10.0,51,0.00,,,0.00,,2013-02-22 18:52:00,
2013-02-22 12:01:00,30.0,13.0,29.96,NE,42,7.0,10.0,49,0.00,,,0.00,,2013-02-22 19:01:00,
2013-02-22 12:11:00,30.0,13.0,29.95,East,86,5.0,9.0,49,0.00,,,0.00,,2013-02-22 19:11:00,
2013-02-22 12:21:00,30.0,13.0,29.95,East,86,5.0,9.0,49,0.00,,,0.00,,2013-02-22 19:21:00,
2013-02-22 12:31:00,31.0,14.0,29.94,NE,49,3.0,9.0,48,0.00,,,0.00,,2013-02-22 19:31:00,
2013-02-22 12:41:00,31.0,14.0,29.94,NE,49,3.0,9.0,48,0.00,,,0.00,,2013-02-22 19:41:00,
2013-02-22 12:52:00,32.0,14.0,29.93,ENE,71,7.0,10.0,47,0.00,,,0.00,,2013-02-22 19:52:00,
2013-02-22 13:01:00,33.0,15.0,29.91,NE,51,8.0,11.0,48,0.00,,,0.00,,2013-02-22 20:01:00,
2013-02-22 13:11:00,33.0,15.0,29.91,NE,51,8.0,11.0,48,0.00,,,0.00,,2013-02-22 20:11:00,
2013-02-22 13:21:00,34.0,15.0,29.90,East,82,5.0,11.0,45,0.00,,,0.00,,2013-02-22 20:21:00,
2013-02-22 13:31:00,33.0,14.0,29.88,North,360,4.0,10.0,45,0.00,,,0.00,,2013-02-22 20:31:00,
2013-02-22 13:41:00,33.0,14.0,29.88,North,360,4.0,10.0,45,0.00,,,0.00,,2013-02-22 20:41:00,
2013-02-22 13:52:00,34.0,12.0,29.87,NE,41,5.0,9.0,40,0.00,,,0.00,,2013-02-22 20:52:00,
2013-02-22 14:01:00,36.0,11.0,29.86,ESE,111,3.0,9.0,35,0.00,,,0.00,,2013-02-22 21:01:00,
2013-02-22 14:11:00,36.0,11.0,29.86,ESE,111,3.0,9.0,35,0.00,,,0.00,,2013-02-22 21:11:00,
2013-02-22 14:21:00,36.0,8.0,29.85,South,182,12.0,22.0,30,0.00,,,0.00,,2013-02-22 21:21:00,
2013-02-22 14:31:00,36.0,8.0,29.85,South,182,12.0,22.0,30,0.00,,,0.00,,2013-02-22 21:31:00,
2013-02-22 14:41:00,36.0,8.0,29.85,South,182,12.0,22.0,30,0.00,,,0.00,,2013-02-22 21:41:00,
2013-02-22 14:52:00,36.0,8.0,29.82,SSW,200,21.0,38.0,30,0.00,,,0.00,,2013-02-22 21:52:00,
2013-02-22 15:01:00,37.0,8.0,29.81,SW,217,19.0,35.0,29,0.00,,,0.00,,2013-02-22 22:01:00,
2013-02-22 15:11:00,37.0,8.0,29.81,SW,217,19.0,35.0,29,0.00,,,0.00,,2013-02-22 22:11:00,
2013-02-22 15:21:00,36.0,7.0,29.80,South,182,22.0,36.0,29,0.00,,,0.00,,2013-02-22 22:21:00,
2013-02-22 15:31:00,36.0,7.0,29.80,SSE,167,13.0,37.0,29,0.00,,,0.00,,2013-02-22 22:31:00,
2013-02-22 15:41:00,36.0,7.0,29.80,SSE,167,13.0,37.0,29,0.00,,,0.00,,2013-02-22 22:41:00,
2013-02-22 15:52:00,36.0,8.0,29.80,ESE,120,19.0,39.0,30,0.00,,,0.00,,2013-02-22 22:52:00,
2013-02-22 16:01:00,36.0,9.0,29.80,WNW,290,12.0,29.0,32,0.00,,,0.00,,2013-02-22 23:01:00,
2013-02-22 16:11:00,36.0,9.0,29.80,WNW,290,12.0,29.0,32,0.00,,,0.00,,2013-02-22 23:11:00,
2013-02-22 16:21:00,35.0,8.0,29.80,West,276,9.0,25.0,32,0.00,,,0.00,,2013-02-22 23:21:00,
2013-02-22 16:31:00,35.0,8.0,29.80,WSW,240,5.0,22.0,32,0.00,,,0.00,,2013-02-22 23:31:00,
2013-02-22 16:41:00,35.0,8.0,29.80,WSW,240,5.0,22.0,32,0.00,,,0.00,,2013-02-22 23:41:00,
2013-02-22 16:52:00,35.0,7.0,29.81,South,175,8.0,31.0,31,0.00,,,0.00,,2013-02-22 23:52:00,
2013-02-22 17:01:00,34.0,8.0,29.81,North,9,20.0,30.0,33,0.00,,,0.00,,2013-02-23 00:01:00,
2013-02-22 17:11:00,34.0,8.0,29.81,North,9,20.0,30.0,33,0.00,,,0.00,,2013-02-23 00:11:00,
2013-02-22 17:21:00,33.0,8.0,29.80,WNW,292,15.0,32.0,34,0.00,,,0.00,,2013-02-23 00:21:00,
2013-02-22 17:31:00,33.0,8.0,29.80,NE,52,13.0,43.0,35,0.00,,,0.00,,2013-02-23 00:31:00,
2013-02-22 17:41:00,33.0,8.0,29.80,NE,52,13.0,43.0,35,0.00,,,0.00,,2013-02-23 00:41:00,
2013-02-22 17:52:00,32.0,8.0,29.79,SW,221,19.0,27.0,36,0.00,,,0.00,,2013-02-23 00:52:00,
2013-02-22 18:01:00,32.0,8.0,29.78,SSW,192,9.0,16.0,36,0.00,,,0.00,,2013-02-23 01:01:00,
2013-02-22 18:11:00,32.0,8.0,29.78,SSW,192,9.0,16.0,36,0.00,,,0.00,,2013-02-23 01:11:00,
2013-02-22 18:21:00,32.0,7.0,29.76,SSW,206,14.0,26.0,35,0.00,,,0.00,,2013-02-23 01:21:00,
2013-02-22 18:31:00,32.0,7.0,29.75,South,175,13.0,19.0,35,0.00,,,0.00,,2013-02-23 01:31:00,
2013-02-22 18:41:00,32.0,7.0,29.75,South,175,13.0,19.0,35,0.00,,,0.00,,2013-02-23 01:41:00,
2013-02-22 18:52:00,32.0,7.0,29.75,South,182,16.0,26.0,34,0.00,,,0.00,,2013-02-23 01:52:00,
2013-02-22 19:01:00,32.0,7.0,29.74,WSW,246,13.0,27.0,35,0.00,,,0.00,,2013-02-23 02:01:00,
2013-02-22 19:11:00,32.0,7.0,29.74,WSW,246,13.0,27.0,35,0.00,,,0.00,,2013-02-23 02:11:00,
2013-02-22 19:21:00,32.0,7.0,29.74,WSW,246,13.0,27.0,35,0.00,,,0.00,,2013-02-23 02:21:00,
2013-02-22 19:31:00,29.0,9.0,29.73,WNW,285,1.0,4.0,43,0.00,,,0.00,,2013-02-23 02:31:00,
2013-02-22 19:41:00,29.0,9.0,29.73,WNW,285,1.0,4.0,43,0.00,,,0.00,,2013-02-23 02:41:00,
2013-02-22 19:52:00,28.0,10.0,29.74,WSW,242,1.0,4.0,46,0.00,,,0.00,,2013-02-23 02:52:00,
2013-02-22 20:01:00,26.0,11.0,29.73,NW,325,4.0,11.0,52,0.00,,,0.00,,2013-02-23 03:01:00,
2013-02-22 20:11:00,26.0,11.0,29.73,NW,325,4.0,11.0,52,0.00,,,0.00,,2013-02-23 03:11:00,
2013-02-22 20:21:00,26.0,11.0,29.73,SSW,205,1.0,5.0,53,0.00,,,0.00,,2013-02-23 03:21:00,
2013-02-22 20:31:00,25.0,10.0,29.73,South,180,6.0,10.0,53,0.00,,,0.00,,2013-02-23 03:31:00,
2013-02-22 20:41:00,25.0,10.0,29.73,South,180,6.0,10.0,53,0.00,,,0.00,,2013-02-23 03:41:00,
2013-02-22 20:52:00,28.0,11.0,29.73,West,279,10.0,27.0,49,0.00,,,0.00,,2013-02-23 03:52:00,
2013-02-22 21:01:00,27.0,11.0,29.73,NE,49,4.0,7.0,51,0.00,,,0.00,,2013-02-23 04:01:00,
2013-02-22 21:11:00,32.0,10.0,29.72,SW,227,11.0,18.0,39,0.00,,,0.00,,2013-02-23 04:11:00,
2013-02-22 21:21:00,32.0,10.0,29.72,SW,227,11.0,18.0,39,0.00,,,0.00,,2013-02-23 04:21:00,
2013-02-22 21:31:00,31.0,10.0,29.72,SSW,200,7.0,18.0,41,0.00,,,0.00,,2013-02-23 04:31:00,
2013-02-22 21:41:00,31.0,10.0,29.72,SSW,200,7.0,18.0,41,0.00,,,0.00,,2013-02-23 04:41:00,
2013-02-22 21:52:00,33.0,9.0,29.71,SW,220,7.0,13.0,36,0.00,,,0.00,,2013-02-23 04:52:00,
2013-02-22 22:01:00,33.0,10.0,29.71,South,183,5.0,13.0,37,0.00,,,0.00,,2013-02-23 05:01:00,
2013-02-22 22:11:00,33.0,10.0,29.71,South,183,5.0,13.0,37,0.00,,,0.00,,2013-02-23 05:11:00,
2013-02-22 22:22:00,34.0,10.0,29.69,SE,136,3.0,16.0,36,0.00,,,0.00,,2013-02-23 05:22:00,
2013-02-22 22:32:00,28.0,11.0,29.68,SSE,153,4.0,7.0,49,0.00,,,0.00,,2013-02-23 05:32:00,
2013-02-22 22:41:00,28.0,11.0,29.68,SSE,153,4.0,7.0,49,0.00,,,0.00,,2013-02-23 05:41:00,
2013-02-22 22:52:00,27.0,11.0,29.68,WSW,239,4.0,7.0,51,0.00,,,0.00,,2013-02-23 05:52:00,
2013-02-22 23:01:00,29.0,11.0,29.68,WSW,242,8.0,17.0,46,0.00,,,0.00,,2013-02-23 06:01:00,
2013-02-22 23:11:00,29.0,11.0,29.68,WSW,242,8.0,17.0,46,0.00,,,0.00,,2013-02-23 06:11:00,
2013-02-22 23:22:00,35.0,11.0,29.67,South,187,4.0,17.0,37,0.00,,,0.00,,2013-02-23 06:22:00,
2013-02-22 23:31:00,35.0,11.0,29.66,SSW,205,22.0,32.0,36,0.00,,,0.00,,2013-02-23 06:31:00,
2013-02-22 23:41:00,35.0,11.0,29.66,SSW,205,22.0,32.0,36,0.00,,,0.00,,2013-02-23 06:41:00,
2013-02-22 23:52:00,35.0,11.0,29.66,SSW,192,13.0,46.0,36,0.00,,,0.00,,2013-02-23 06:52:00,